• In Germany
  • List of Countries
  • For 7 days
  • Water Temperature
  • Satellite Maps
  • Weather Map
  • Weather Widgets
  • user-avatar
    Login

    Hourly Weather Stepanakert

    Today, 24 July, Monday

    Time Temperature Precipitation Wind Pressure Humidity
    00:00 +24°C° 0 mm 2 mps 690 mmHg 52%
    01:00 +24°C° 0 mm 2 mps 690 mmHg 54%
    02:00 +23°C° 0 mm 2 mps 690 mmHg 55%
    03:00 +23°C° 0 mm 2 mps 689 mmHg 61%
    04:00 +23°C° 0 mm 2 mps 689 mmHg 61%
    05:00 +23°C° 0 mm 2 mps 690 mmHg 61%
    06:00 +24°C° 0 mm 2 mps 690 mmHg 62%
    07:00 +25°C° 0 mm 3 mps 690 mmHg 59%
    08:00 +26°C° 0 mm 4 mps 690 mmHg 55%
    09:00 +28°C° 0 mm 4 mps 691 mmHg 52%
    10:00 +29°C° 0 mm 4 mps 690 mmHg 51%
    11:00 +29°C° 0 mm 4 mps 690 mmHg 50%
    12:00 +30°C° 0 mm 5 mps 690 mmHg 48%
    13:00 +30°C° 0.1 mm 5 mps 690 mmHg 48%
    14:00 +30°C° 0.1 mm 5 mps 689 mmHg 47%
    15:00 +32°C° 0.1 mm 5 mps 689 mmHg 47%
    16:00 +30°C° 0 mm 5 mps 689 mmHg 49%
    17:00 +29°C° 0 mm 5 mps 689 mmHg 51%
    18:00 +28°C° 0 mm 5 mps 689 mmHg 53%
    19:00 +27°C° 0 mm 4 mps 689 mmHg 58%
    20:00 +25°C° 0 mm 3 mps 689 mmHg 64%
    21:00 +23°C° 0 mm 2 mps 689 mmHg 70%
    22:00 +23°C° 0 mm 2 mps 689 mmHg 71%
    23:00 +21°C° 0 mm 2 mps 689 mmHg 72%

    Tomorrow, 25 July, Tuesday

    Time Temperature Precipitation Wind Pressure Humidity
    00:00 +21°C° 0 mm 2 mps 689 mmHg 73%
    01:00 +21°C° 0 mm 2 mps 689 mmHg 72%
    02:00 +20°C° 0 mm 2 mps 689 mmHg 71%
    03:00 +21°C° 0 mm 1 mps 689 mmHg 69%
    04:00 +21°C° 0 mm 1 mps 689 mmHg 67%
    05:00 +22°C° 0 mm 1 mps 689 mmHg 65%
    06:00 +22°C° 0 mm 1 mps 689 mmHg 62%
    07:00 +24°C° 0 mm 2 mps 689 mmHg 57%
    08:00 +26°C° 0 mm 2 mps 690 mmHg 51%
    09:00 +28°C° 0 mm 2 mps 690 mmHg 45%
    10:00 +29°C° 0 mm 3 mps 689 mmHg 42%
    11:00 +30°C° 0 mm 3 mps 689 mmHg 40%
    12:00 +31°C° 0 mm 3 mps 689 mmHg 37%
    13:00 +33°C° 0.2 mm 3 mps 689 mmHg 36%
    14:00 +33°C° 0.2 mm 3 mps 688 mmHg 35%
    15:00 +34°C° 0.2 mm 3 mps 688 mmHg 34%
    16:00 +33°C° 0.2 mm 3 mps 688 mmHg 36%
    17:00 +31°C° 0.2 mm 3 mps 688 mmHg 38%
    18:00 +31°C° 0.2 mm 3 mps 687 mmHg 40%
    19:00 +29°C° 0.1 mm 3 mps 688 mmHg 46%
    20:00 +27°C° 0.1 mm 2 mps 688 mmHg 51%
    21:00 +25°C° 0.1 mm 2 mps 688 mmHg 56%
    22:00 +24°C° 0 mm 2 mps 688 mmHg 58%
    23:00 +24°C° 0 mm 2 mps 688 mmHg 59%

    Day after tomorrow, 26 July, Wednesday

    Time Temperature Precipitation Wind Pressure Humidity
    00:00 +24°C° 0 mm 2 mps 688 mmHg 60%
    01:00 +23°C° 0 mm 2 mps 688 mmHg 61%
    02:00 +23°C° 0 mm 2 mps 688 mmHg 62%
    03:00 +21°C° 0 mm 2 mps 688 mmHg 63%
    04:00 +23°C° 0 mm 1 mps 688 mmHg 61%
    05:00 +23°C° 0 mm 1 mps 689 mmHg 60%
    06:00 +24°C° 0 mm 1 mps 689 mmHg 59%
    07:00 +26°C° 0 mm 2 mps 689 mmHg 52%
    08:00 +27°C° 0 mm 2 mps 689 mmHg 45%
    09:00 +29°C° 0 mm 2 mps 690 mmHg 39%
    10:00 +31°C° 0 mm 2 mps 690 mmHg 36%
    11:00 +33°C° 0 mm 3 mps 690 mmHg 33%
    12:00 +34°C° 0 mm 3 mps 689 mmHg 31%
    13:00 +34°C° 0 mm 3 mps 689 mmHg 30%
    14:00 +35°C° 0 mm 3 mps 689 mmHg 30%
    15:00 +35°C° 0 mm 4 mps 689 mmHg 29%
    16:00 +35°C° 0 mm 4 mps 689 mmHg 31%
    17:00 +34°C° 0 mm 3 mps 689 mmHg 34%
    18:00 +33°C° 0 mm 3 mps 689 mmHg 36%
    19:00 +30°C° 0 mm 3 mps 689 mmHg 42%
    20:00 +28°C° 0 mm 3 mps 689 mmHg 47%
    21:00 +26°C° 0 mm 2 mps 690 mmHg 52%
    22:00 +25°C° 0 mm 2 mps 690 mmHg 53%
    23:00 +25°C° 0 mm 2 mps 690 mmHg 54%

    27 July, Thursday

    Time Temperature Precipitation Wind Pressure Humidity
    00:00 +24°C° 0 mm 2 mps 690 mmHg 55%
    01:00 +24°C° 0 mm 2 mps 690 mmHg 55%
    02:00 +24°C° 0 mm 2 mps 690 mmHg 55%
    03:00 +23°C° 0 mm 2 mps 690 mmHg 55%
    04:00 +24°C° 0 mm 2 mps 690 mmHg 54%
    05:00 +24°C° 0 mm 2 mps 691 mmHg 53%
    06:00 +24°C° 0 mm 2 mps 691 mmHg 53%
    07:00 +26°C° 0 mm 2 mps 691 mmHg 47%
    08:00 +28°C° 0 mm 2 mps 691 mmHg 41%
    09:00 +30°C° 0 mm 2 mps 692 mmHg 35%
    10:00 +32°C° 0 mm 2 mps 692 mmHg 32%
    11:00 +34°C° 0 mm 2 mps 691 mmHg 30%
    12:00 +35°C° 0 mm 3 mps 691 mmHg 27%
    13:00 +36°C° 0 mm 3 mps 691 mmHg 26%
    14:00 +36°C° 0 mm 3 mps 691 mmHg 26%
    15:00 +37°C° 0 mm 3 mps 690 mmHg 25%
    16:00 +36°C° 0 mm 3 mps 690 mmHg 27%
    17:00 +35°C° 0 mm 3 mps 690 mmHg 29%
    18:00 +35°C° 0 mm 2 mps 690 mmHg 30%
    19:00 +32°C° 0 mm 2 mps 690 mmHg 34%
    20:00 +29°C° 0 mm 2 mps 691 mmHg 38%
    21:00 +27°C° 0 mm 2 mps 691 mmHg 41%
    22:00 +27°C° 0 mm 2 mps 691 mmHg 42%
    23:00 +26°C° 0 mm 2 mps 691 mmHg 42%

    28 July, Friday

    Time Temperature Precipitation Wind Pressure Humidity
    00:00 +26°C° 0 mm 2 mps 691 mmHg 43%
    01:00 +25°C° 0 mm 2 mps 691 mmHg 43%
    02:00 +25°C° 0 mm 2 mps 691 mmHg 42%
    03:00 +25°C° 0 mm 2 mps 691 mmHg 42%
    04:00 +25°C° 0 mm 2 mps 691 mmHg 42%
    05:00 +25°C° 0 mm 2 mps 691 mmHg 41%
    06:00 +26°C° 0 mm 2 mps 691 mmHg 41%
    07:00 +28°C° 0 mm 2 mps 691 mmHg 36%
    08:00 +30°C° 0 mm 2 mps 692 mmHg 32%
    09:00 +34°C° 0 mm 2 mps 692 mmHg 27%
    10:00 +35°C° 0 mm 2 mps 692 mmHg 25%
    11:00 +36°C° 0 mm 3 mps 691 mmHg 23%
    12:00 +38°C° 0 mm 3 mps 691 mmHg 21%
    13:00 +38°C° 0 mm 3 mps 691 mmHg 21%
    14:00 +39°C° 0 mm 3 mps 691 mmHg 20%
    15:00 +39°C° 0 mm 3 mps 690 mmHg 20%
    16:00 +38°C° 0 mm 3 mps 690 mmHg 22%
    17:00 +37°C° 0 mm 2 mps 690 mmHg 24%
    18:00 +37°C° 0 mm 2 mps 690 mmHg 27%
    19:00 +34°C° 0 mm 2 mps 690 mmHg 31%
    20:00 +31°C° 0 mm 2 mps 690 mmHg 34%
    21:00 +29°C° 0 mm 2 mps 691 mmHg 38%
    22:00 +28°C° 0 mm 2 mps 691 mmHg 39%
    23:00 +28°C° 0 mm 2 mps 691 mmHg 39%

    29 July, Saturday

    Time Temperature Precipitation Wind Pressure Humidity
    00:00 +27°C° 0 mm 2 mps 691 mmHg 39%
    01:00 +27°C° 0 mm 2 mps 691 mmHg 39%
    02:00 +27°C° 0 mm 2 mps 691 mmHg 39%
    03:00 +26°C° 0 mm 2 mps 691 mmHg 40%
    04:00 +27°C° 0 mm 2 mps 691 mmHg 39%
    05:00 +27°C° 0 mm 2 mps 691 mmHg 39%
    06:00 +27°C° 0 mm 2 mps 692 mmHg 38%
    07:00 +30°C° 0 mm 2 mps 692 mmHg 34%
    08:00 +32°C° 0 mm 2 mps 692 mmHg 31%
    09:00 +35°C° 0 mm 2 mps 693 mmHg 27%
    10:00 +37°C° 0 mm 2 mps 693 mmHg 25%
    11:00 +38°C° 0 mm 2 mps 692 mmHg 23%
    12:00 +39°C° 0 mm 3 mps 692 mmHg 21%
    13:00 +40°C° 0 mm 3 mps 692 mmHg 21%
    14:00 +40°C° 0 mm 3 mps 692 mmHg 20%
    15:00 +42°C° 0 mm 3 mps 691 mmHg 20%
    16:00 +40°C° 0 mm 3 mps 691 mmHg 22%
    17:00 +39°C° 0 mm 2 mps 691 mmHg 24%
    18:00 +38°C° 0 mm 2 mps 691 mmHg 26%
    19:00 +36°C° 0 mm 2 mps 691 mmHg 30%
    20:00 +32°C° 0 mm 2 mps 691 mmHg 34%
    21:00 +30°C° 0 mm 2 mps 691 mmHg 38%
    22:00 +29°C° 0 mm 2 mps 691 mmHg 39%
    23:00 +29°C° 0 mm 2 mps 691 mmHg 40%
    Show more